RH
8 7 7 7 8 8 8 8 7 7 7 7 7 7 7 7 7 8 8 8 8 9 10 10 10 11 12 11 11 11 11 12 12 12 13 15 18 22 25 27 27 25 21 16 15 16 16 16 14 16 25 36 42 46 52 57 66 75 76 66 50 31 31 46 60 64 59 75 80 71 90 91 74 72 69 69 70 70 68 73 80 82 85 81 80 82 81 86
8 8 8 9 9 9 8 8 8 7 7 7 7 6 7 7 7 7 8 8 8 9 9 10 11 12 13 13 13 12 12 12 12 12 12 12 12 14 17 22 27 30 30 25 21 17 16 17 17 16 17 22 29 38 46 52 62 66 67 59 36 16 18 29 44 58 62 80 84 73 87 92 81 76 70 69 72 74 66 67 81 85 89 93 90 83 77 86
9 9 9 9 9 9 9 9 8 8 7 7 7 7 7 7 7 8 8 8 8 9 10 11 12 13 14 14 15 14 13 13 12 12 12 13 12 11 11 12 17 23 29 32 30 25 20 17 18 20 19 17 18 26 34 44 52 56 63 50 20 10 19 24 33 49 55 69 81 76 82 91 89 82 75 75 76 75 67 68 82 87 90 97 99 90 80 83
10 10 10 10 10 11 10 10 9 8 8 7 7 7 7 7 7 7 7 7 8 9 10 12 14 16 17 17 17 16 15 14 13 13 12 12 13 13 13 11 10 12 17 24 31 33 30 23 19 19 21 21 18 18 21 28 36 46 52 33 11 16 25 25 34 54 53 49 66 78 83 87 90 90 82 80 81 75 68 68 73 80 89 95 99 97 85 77
11 11 11 11 12 12 12 11 10 9 8 7 7 7 7 7 7 7 7 7 8 9 11 13 16 18 19 19 18 17 16 14 14 13 13 12 12 12 13 13 13 11 9 11 18 26 33 33 29 22 19 21 22 20 18 18 22 32 32 18 13 24 37 39 47 66 53 36 51 66 75 83 91 98 90 80 80 74 72 75 70 73 84 90 95 99 91 80
12 12 12 13 13 14 13 12 11 9 8 7 7 7 7 7 7 7 7 8 9 12 15 17 19 20 19 18 16 15 14 13 13 12 12 12 12 12 11 12 13 13 12 10 9 12 20 29 35 34 27 21 21 21 23 21 18 19 16 11 13 30 51 51 53 61 40 30 48 54 61 78 93 101 91 79 82 78 72 78 76 72 75 83 89 94 95 93
13 13 13 14 15 15 14 13 11 9 8 8 8 8 7 7 7 6 7 8 11 15 18 21 21 20 17 14 12 11 10 9 9 9 9 10 10 10 10 10 11 12 13 13 11 9 8 14 23 33 36 32 26 20 22 25 22 18 13 12 13 27 41 34 36 44 29 25 41 49 56 69 83 90 83 80 89 87 79 79 78 74 73 77 82 85 89 93
14 14 14 15 16 16 15 13 11 9 9 9 9 8 8 7 7 7 8 10 14 18 22 22 20 17 13 10 9 9 9 8 8 8 7 8 8 8 8 8 9 10 11 12 12 12 10 8 10 17 28 37 36 29 23 21 23 22 18 17 15 15 18 16 22 30 29 31 39 46 51 57 65 75 85 90 91 89 91 87 76 74 75 77 79 79 82 86
15 15 16 17 17 17 16 13 11 9 9 9 9 8 8 7 7 8 10 14 18 22 23 21 17 13 10 9 10 10 10 10 9 9 9 8 8 8 8 7 8 8 8 10 10 12 12 11 9 7 12 22 33 38 34 26 23 23 22 22 18 12 11 13 16 20 30 39 44 41 37 46 56 69 88 93 87 84 94 94 81 76 71 75 77 71 75 79
17 16 17 18 18 18 16 14 11 10 10 10 9 8 8 7 8 9 13 18 22 24 23 18 13 10 10 10 11 12 12 12 12 11 11 10 10 9 9 8 8 8 7 7 8 9 11 11 12 9 7 8 16 29 38 38 31 22 21 21 20 17 14 13 12 15 26 34 42 39 31 40 53 66 74 76 80 82 88 90 87 85 70 68 73 66 70 74
18 18 19 19 20 19 16 14 11 10 10 10 9 8 8 8 8 11 16 21 25 25 21 15 12 10 10 11 12 13 13 12 12 12 12 12 12 11 11 10 9 9 8 7 7 7 8 9 10 11 10 8 7 12 23 36 40 33 24 20 19 20 19 18 15 13 18 22 32 39 40 49 56 58 55 58 72 83 92 88 83 87 73 66 67 62 67 71
19 19 20 21 21 19 17 14 11 11 11 10 10 8 8 8 9 13 19 25 27 26 20 14 11 10 11 12 12 13 12 12 13 14 14 14 13 12 11 11 10 9 9 8 7 7 7 7 8 10 10 10 8 7 10 18 32 40 36 27 21 22 22 21 20 16 15 16 23 37 50 56 49 39 37 47 64 82 98 93 88 90 75 71 73 62 59 65
21 21 22 22 21 20 17 14 12 12 11 11 10 8 8 9 11 15 21 27 28 26 20 14 11 11 11 12 13 13 13 13 14 15 15 14 13 12 12 11 10 9 8 8 7 7 7 6 7 9 9 10 10 8 7 8 15 29 38 39 32 25 22 20 22 21 19 16 17 27 37 36 26 18 23 38 57 77 87 86 95 97 75 69 74 69 63 61
22 23 23 23 22 20 17 14 13 12 12 12 10 9 9 9 12 17 23 28 29 26 19 13 11 11 12 13 14 14 13 14 16 16 14 13 13 15 13 11 9 8 7 7 7 6 6 7 7 8 10 10 10 9 8 7 7 13 25 37 41 35 26 21 22 23 23 22 18 20 22 15 12 12 16 30 50 64 69 72 85 90 76 69 67 69 69 61
24 24 25 24 23 21 18 15 14 13 13 12 10 10 9 10 14 19 25 29 29 25 18 13 11 11 13 15 15 14 14 15 16 15 13 14 18 19 14 11 10 10 10 8 7 7 6 6 7 9 11 10 11 11 9 9 8 8 12 22 34 41 38 30 25 22 24 26 23 21 17 9 7 11 21 36 46 50 55 59 67 73 73 76 73 69 70 64
25 26 26 26 24 21 18 16 14 14 14 12 11 10 10 12 15 19 25 28 28 25 19 14 11 12 14 16 16 14 15 16 17 16 15 19 22 18 12 11 13 15 16 12 9 8 7 7 7 10 13 13 14 13 11 10 9 8 7 11 20 31 41 42 35 26 23 26 26 23 17 11 9 12 25 41 44 41 44 52 56 60 63 71 77 75 75 67
27 27 27 27 25 22 19 16 16 15 14 13 12 10 11 13 16 20 25 28 28 26 19 14 12 11 13 16 17 15 15 17 18 18 19 24 22 13 10 12 16 19 21 19 13 11 12 13 11 12 17 18 16 17 17 11 9 11 8 8 12 18 30 41 43 35 27 25 24 23 17 14 15 16 22 29 35 31 30 43 50 52 54 58 68 72 68 59
29 28 29 28 26 23 20 18 17 16 15 14 13 11 12 13 15 20 25 27 28 26 20 15 12 11 13 16 17 16 16 19 23 22 24 28 18 9 11 15 19 22 24 24 20 16 17 20 21 19 21 26 22 19 24 20 12 11 11 9 9 12 17 28 40 41 36 31 25 22 18 16 19 23 22 17 28 31 21 32 44 46 47 47 57 66 63 60
30 30 30 29 27 24 21 19 18 17 16 15 14 12 12 12 15 19 22 26 28 27 22 15 13 12 13 18 19 17 18 24 28 27 31 28 13 9 15 17 20 23 25 28 26 23 20 19 24 25 23 31 31 22 27 32 22 11 10 10 8 9 11 16 28 36 39 37 31 25 17 18 23 25 25 17 26 35 20 22 37 42 41 40 46 55 59 63
32 32 32 30 28 24 22 20 20 19 18 16 15 13 13 12 14 18 20 25 29 28 23 17 13 12 16 21 21 20 24 30 31 33 37 25 10 11 15 17 21 24 28 31 31 29 25 20 19 23 24 27 32 27 27 35 31 17 8 10 9 9 9 10 16 25 34 38 38 34 23 23 27 26 27 22 22 25 14 14 29 35 33 35 41 45 49 55
34 34 33 31 29 25 22 21 21 21 19 18 16 14 14 13 14 17 19 25 29 29 26 18 13 14 18 21 23 25 29 32 33 37 39 23 9 12 14 17 21 25 30 34 38 36 32 27 20 20 22 21 26 30 28 29 32 29 16 8 9 10 9 9 11 14 24 32 37 40 34 30 31 26 25 25 23 20 13 12 20 27 27 29 35 38 39 45
36 35 34 32 29 26 23 22 22 22 21 20 18 16 15 14 15 16 18 24 28 30 28 19 15 17 19 22 27 27 28 32 35 39 37 21 9 12 14 18 23 27 32 38 47 46 37 33 28 24 23 21 22 26 30 28 29 35 29 14 8 10 11 9 10 11 15 23 30 38 41 40 36 27 22 23 20 17 14 12 13 19 22 23 27 29 32 41
38 37 35 33 30 27 23 23 23 22 22 21 19 18 17 16 16 16 18 25 29 29 26 20 19 19 20 24 28 29 30 34 38 40 37 20 9 13 15 19 25 27 33 41 51 58 49 36 30 27 25 26 25 23 28 31 29 31 37 31 15 7 11 10 9 11 12 14 20 29 38 42 41 32 24 20 16 15 16 16 14 13 14 16 19 22 25 35
40 39 36 34 31 28 24 24 24 24 24 23 22 20 18 18 18 17 19 25 29 29 26 24 22 19 22 24 26 32 36 38 41 42 40 25 10 14 18 20 25 27 36 45 54 66 63 45 35 32 27 26 29 27 26 30 34 31 33 40 32 15 9 11 11 11 11 12 13 19 27 36 41 38 30 23 18 18 18 17 15 14 12 11 14 19 20 27
41 39 36 35 33 28 25 25 25 25 25 25 24 23 21 20 19 18 19 25 30 29 28 27 24 21 23 23 26 33 37 42 45 43 45 38 18 13 18 20 25 29 35 47 58 69 70 58 45 41 35 27 27 31 29 28 36 38 32 33 41 35 17 9 11 9 9 10 11 13 17 24 34 38 37 32 26 20 18 18 16 15 14 10 11 15 15 20
42 40 37 35 33 29 27 26 26 26 26 27 26 26 24 21 21 19 19 25 28 29 30 29 26 23 22 21 23 28 35 45 47 42 49 54 37 21 17 19 24 28 36 51 63 68 73 68 52 48 45 34 29 31 33 30 29 39 43 33 32 42 36 18 11 10 9 10 11 12 13 15 22 30 36 38 35 27 20 18 16 15 16 13 10 11 12 17
42 41 38 36 34 30 28 27 28 27 28 28 28 29 28 24 22 21 21 24 26 29 32 32 29 26 22 21 21 22 32 43 43 41 50 59 52 31 19 21 25 28 35 54 66 67 70 69 56 52 52 43 35 32 34 35 29 35 49 43 29 33 41 33 22 13 8 9 12 12 10 10 13 20 29 34 37 35 28 21 16 15 15 14 12 10 12 15
42 41 39 38 36 32 29 29 29 29 30 30 30 31 31 28 23 22 24 25 26 31 33 32 32 29 26 25 24 22 28 36 38 42 51 58 53 41 37 41 40 37 39 54 69 67 63 65 58 51 51 47 38 35 39 37 36 41 42 43 41 36 35 37 35 25 14 12 13 11 9 9 9 10 18 26 33 36 33 26 20 16 15 16 15 13 13 14
41 41 39 39 37 33 32 32 31 31 31 32 32 33 33 32 25 22 24 26 28 32 33 33 34 33 31 30 31 29 28 32 35 44 55 56 55 55 59 62 59 55 52 58 72 71 62 63 61 52 49 47 39 46 57 45 40 45 35 36 48 48 40 36 35 33 28 22 14 10 9 8 7 8 10 15 23 31 33 30 26 22 18 17 17 16 15 15
40 42 41 40 38 35 34 34 34 34 34 34 34 35 36 35 28 22 23 26 30 33 34 35 34 33 34 34 38 38 34 33 38 52 61 56 56 64 70 73 70 64 59 61 71 73 66 63 63 59 55 53 44 45 54 47 42 43 34 33 43 49 50 45 38 35 36 32 18 9 11 10 7 7 8 8 12 21 28 31 32 31 25 19 18 19 17 15
42 43 43 42 40 37 36 37 36 36 36 36 36 37 38 38 32 24 23 26 30 33 35 37 35 35 37 36 40 44 40 36 45 61 66 63 66 73 81 83 74 64 65 72 75 72 70 68 65 62 61 61 54 44 43 43 41 40 35 33 37 43 48 47 42 38 35 32 21 10 10 12 10 7 6 6 7 11 17 25 32 34 31 26 21 18 18 18
45 46 45 45 42 40 39 39 39 38 39 38 38 40 40 39 35 27 23 25 30 34 36 36 34 34 38 37 39 45 41 38 53 69 71 73 80 86 88 84 70 59 62 78 83 73 74 75 67 63 64 66 66 63 65 61 49 43 39 36 34 37 47 53 47 44 38 29 23 21 22 20 14 9 7 6 5 6 9 16 24 30 33 32 27 21 19 20
47 48 48 47 45 44 43 42 42 41 41 41 41 42 43 42 40 30 23 25 31 35 36 37 34 32 36 36 37 43 42 38 45 58 66 74 83 87 83 74 64 54 53 68 79 75 77 82 75 70 71 72 71 72 80 78 64 53 43 39 36 35 57 75 62 51 48 35 24 25 30 29 19 10 7 6 5 5 6 8 13 22 30 33 32 27 21 20
49 50 50 50 49 48 47 46 45 43 43 43 43 44 45 45 44 33 21 22 32 38 37 39 36 32 35 36 36 41 43 39 41 51 62 67 72 76 76 71 63 56 57 66 75 78 84 91 92 87 82 80 76 75 81 78 69 61 50 43 40 37 56 76 67 61 66 60 48 38 29 26 25 18 10 6 6 5 5 6 7 11 20 28 33 31 25 21
51 50 52 52 52 52 52 50 47 46 45 44 44 46 47 48 48 37 20 16 27 37 39 39 35 33 37 39 39 42 42 44 55 67 67 62 65 71 73 74 67 62 67 72 74 79 89 97 101 96 89 86 84 83 86 83 74 69 61 50 40 40 58 73 71 71 74 73 79 77 54 29 22 20 12 5 5 6 5 5 5 6 10 19 27 32 33 27
52 51 53 54 53 55 56 53 51 50 49 46 44 47 50 51 52 41 22 13 20 31 37 38 34 32 37 41 41 44 44 43 54 66 63 62 73 74 68 69 70 69 73 78 77 80 93 100 98 98 93 90 95 87 78 87 89 75 65 55 41 43 63 77 73 60 50 54 72 80 64 38 22 17 12 8 6 6 7 6 5 5 5 9 18 27 33 33
55 54 55 55 55 58 59 57 54 52 52 50 47 48 51 51 52 44 24 12 17 27 34 37 34 30 32 37 40 46 47 42 49 62 61 66 80 78 68 67 70 70 70 74 73 75 90 94 94 103 98 89 98 87 65 79 96 85 73 67 60 56 57 67 79 70 51 49 54 53 53 48 32 17 12 12 9 6 6 7 7 6 5 5 9 17 27 33
58 57 58 57 57 60 61 61 58 55 54 54 50 51 52 51 53 47 27 13 15 26 35 37 34 31 30 33 39 48 49 41 50 64 62 65 76 77 73 67 65 66 65 69 72 75 86 92 94 104 100 92 99 89 71 77 90 92 85 77 79 75 53 49 69 76 63 53 47 40 45 48 34 21 18 15 11 10 8 8 8 7 6 5 4 8 17 28
59 60 61 60 60 62 63 64 61 56 56 57 55 54 54 52 54 51 32 15 13 24 36 39 35 33 33 32 37 51 51 38 48 66 62 62 73 79 82 74 60 55 60 70 80 83 90 97 98 100 100 97 92 84 87 92 91 91 87 76 76 72 56 50 59 64 61 61 66 63 52 40 27 19 18 17 14 11 9 8 8 8 8 7 4 5 8 18
60 63 63 62 64 65 65 66 63 59 60 61 61 58 57 56 57 56 40 18 12 20 32 40 37 32 35 36 38 53 55 38 44 67 68 65 73 82 88 80 60 55 65 76 85 90 97 101 99 100 101 89 76 83 99 99 90 87 86 83 76 60 52 58 64 67 66 68 75 75 64 59 54 37 20 14 16 13 11 11 10 9 9 8 6 4 5 9
62 65 65 65 68 68 69 70 67 64 64 65 65 63 60 58 59 62 48 23 13 18 28 40 41 33 34 38 40 51 57 43 37 56 73 74 71 72 76 71 61 62 71 78 86 96 102 100 96 101 100 77 65 80 86 76 73 74 77 86 86 75 70 67 60 58 62 65 62 57 55 59 67 58 32 16 16 14 12 12 11 10 9 9 8 6 5 5
66 67 66 67 71 71 71 73 69 68 66 64 65 66 65 62 61 64 54 29 14 15 24 38 43 37 35 37 40 44 50 49 40 45 69 82 73 64 65 65 65 69 72 79 91 99 101 100 100 101 92 68 57 66 66 60 62 59 63 78 83 83 81 63 48 51 58 58 52 51 47 35 39 46 31 16 17 17 15 12 10 12 10 8 9 6 5 5
69 67 67 70 73 74 75 76 74 72 68 63 64 65 66 64 63 66 58 34 16 12 21 35 43 42 36 35 40 40 40 46 44 41 62 84 78 65 64 66 68 72 76 83 93 99 100 99 101 101 89 69 60 64 62 60 62 58 56 63 67 74 73 55 54 72 67 41 41 57 50 30 32 38 30 25 22 17 20 19 13 12 11 9 10 9 8 7
73 69 70 72 72 74 77 79 78 75 71 68 68 67 68 67 65 68 62 38 17 11 17 31 45 45 38 34 37 42 39 38 42 49 69 86 81 68 66 67 66 67 73 82 90 97 101 99 100 102 95 82 73 72 69 62 64 66 56 47 48 59 64 51 50 61 48 28 44 63 50 38 42 38 41 56 47 25 26 30 23 18 14 12 13 11 10 8
76 73 72 73 72 73 74 75 76 76 74 74 75 74 73 71 66 68 66 43 18 11 13 24 41 45 40 34 34 44 46 40 50 66 77 85 85 78 71 64 63 65 69 81 92 98 100 100 99 100 100 94 77 66 68 70 71 70 54 38 40 46 53 57 55 50 39 36 48 51 40 40 45 36 40 64 68 50 43 44 36 28 23 19 16 14 12 10
76 76 73 72 72 71 71 71 72 72 70 71 74 74 73 73 70 68 68 50 22 10 9 15 32 42 41 35 34 46 52 49 61 76 75 78 85 87 79 68 68 75 74 81 94 99 100 100 99 98 101 100 79 55 53 64 74 80 66 46 44 44 41 44 46 43 42 44 45 46 46 51 58 55 48 55 69 62 52 51 44 34 34 29 18 13 11 9
74 76 71 69 70 70 68 69 68 66 65 66 69 71 69 72 73 70 70 57 27 10 7 9 23 38 41 35 33 45 53 53 66 75 68 70 81 85 81 73 77 85 80 80 91 97 99 98 96 98 100 100 93 76 60 53 60 80 85 67 58 56 48 40 38 42 52 58 61 67 71 67 69 70 57 54 65 57 45 51 52 43 42 36 22 20 17 9
71 74 72 70 72 73 69 67 66 63 62 63 67 72 70 69 71 71 72 66 36 11 7 8 17 34 42 35 29 37 47 53 68 74 64 63 77 83 80 80 88 88 78 79 92 99 99 94 90 96 100 98 100 97 83 62 47 55 75 79 72 66 58 48 46 53 61 66 71 76 76 69 61 55 49 49 61 65 58 60 64 58 50 43 35 35 30 14
67 72 74 71 73 76 72 67 66 64 61 59 62 70 71 69 71 69 70 72 48 16 7 9 16 34 44 38 30 32 39 46 59 70 64 59 69 77 78 84 89 80 73 82 94 97 95 91 87 92 98 99 99 96 85 63 37 34 57 74 72 65 57 46 40 46 53 53 57 64 71 70 54 41 43 46 51 67 70 61 59 58 50 45 40 39 34 15
64 69 73 73 73 78 77 70 67 65 62 59 58 64 69 72 75 72 68 71 57 24 7 10 19 37 49 43 33 33 40 43 45 56 63 58 60 67 71 77 80 78 81 90 91 88 89 91 91 88 87 91 99 98 82 53 29 27 42 54 57 58 59 53 39 34 41 45 45 48 58 64 53 40 48 51 43 53 64 54 42 37 34 33 31 33 34 17
65 69 76 76 74 77 79 74 69 67 64 60 57 60 65 69 75 77 71 70 60 30 8 7 18 39 55 49 36 32 42 50 45 45 57 59 56 61 68 75 82 87 91 92 89 88 92 95 97 93 87 87 94 99 94 74 48 34 33 40 49 51 51 54 46 33 40 52 51 49 49 50 50 47 51 54 47 51 64 60 41 26 24 30 32 34 33 18
67 73 79 81 78 77 79 78 74 71 66 61 58 58 60 60 65 73 72 69 59 32 10 6 10 29 51 52 40 32 38 52 53 46 52 58 56 61 72 81 88 91 94 97 98 97 99 100 99 98 98 98 96 96 100 96 81 66 55 47 47 46 40 42 43 38 46 54 45 39 44 48 52 51 43 40 43 47 55 60 52 40 41 52 52 40 27 13
Wind_Speed
24 24 24 24 25 25 26 26 27 27 27 27 27 27 27 27 27 27 27 28 29 31 32 33 34 34 34 35 36 37 38 40 41 42 43 45 46 48 50 52 54 56 57 58 58 59 58 58 58 60 63 65 66 65 65 64 64 63 64 64 64 63 60 56 51 51 48 46 50 45 44 51 52 53 51 49 46 45 42 37 37 36 35 35 33 29 26 25
26 26 26 26 27 27 28 28 29 29 30 30 30 30 30 30 29 29 29 30 30 31 32 33 34 34 34 34 35 36 37 38 39 40 40 42 43 46 47 49 51 53 56 57 58 59 60 60 59 59 60 64 66 67 67 66 66 66 65 66 66 61 58 56 53 53 49 46 49 46 45 50 55 57 53 51 47 47 47 41 37 38 36 35 34 32 30 27
26 27 27 28 29 29 30 31 31 32 32 31 31 31 31 31 31 30 31 31 31 31 31 32 33 33 33 33 33 34 36 37 37 37 38 39 40 42 44 46 48 49 52 55 57 59 60 61 60 60 60 61 64 67 68 68 68 67 67 69 64 59 58 57 55 56 54 50 49 48 48 49 55 60 56 53 50 49 49 45 40 39 38 36 34 33 32 30
28 28 29 29 30 32 32 33 34 34 34 34 33 33 33 33 32 32 32 32 32 32 32 32 31 31 31 31 31 31 33 34 35 35 36 37 38 39 41 43 45 47 49 51 54 57 60 61 62 62 62 62 63 64 67 68 69 70 70 69 62 60 62 60 58 56 58 55 49 48 50 52 53 59 61 56 54 53 50 48 44 41 39 37 35 34 34 34
29 29 30 31 32 33 35 35 36 36 36 36 36 36 35 35 34 33 33 33 33 33 33 32 31 30 29 28 28 29 30 31 32 33 35 35 36 37 39 40 42 44 46 48 50 53 56 59 61 63 63 63 64 64 64 65 68 70 71 67 63 64 65 63 60 60 63 57 51 51 51 53 53 54 61 59 57 57 52 49 47 44 41 39 38 36 36 37
30 30 31 32 34 35 36 37 38 38 39 39 38 37 36 36 35 34 34 33 33 33 33 32 30 29 27 26 26 26 27 29 29 30 32 34 35 36 37 39 40 42 43 45 47 50 52 56 59 62 64 64 66 66 64 64 67 69 69 67 65 67 68 66 65 66 67 58 53 54 52 52 53 51 56 57 57 61 57 51 49 48 44 41 42 41 39 38
30 31 32 33 35 36 37 39 40 40 40 40 39 38 37 36 36 35 34 34 33 32 31 30 29 28 26 25 24 24 24 25 26 27 29 31 33 34 35 37 38 40 42 43 45 47 49 52 55 58 61 63 66 67 66 67 68 68 67 65 67 70 72 71 69 69 67 59 55 56 54 54 55 54 55 54 54 58 59 56 54 51 46 44 45 44 42 40
31 31 33 34 36 37 39 40 41 42 41 41 39 38 37 36 36 35 34 33 32 31 30 28 27 26 25 23 22 21 20 21 22 23 25 27 29 30 31 33 35 38 40 42 44 45 47 49 52 54 57 61 65 66 67 69 68 67 66 65 69 73 72 70 71 70 67 62 59 59 58 56 57 55 54 54 52 52 54 59 57 53 50 47 45 45 45 43
31 32 33 35 37 38 40 41 42 43 42 41 40 38 37 36 35 34 33 32 31 30 29 27 26 24 23 21 19 18 17 17 18 19 20 22 24 25 27 28 30 32 35 39 41 43 46 48 49 51 54 58 61 63 66 67 67 69 68 68 72 72 70 70 71 71 68 65 63 62 60 59 58 56 55 55 54 52 51 56 56 54 55 51 48 47 47 46
32 33 34 36 38 39 41 42 43 43 43 42 40 39 38 36 34 33 32 31 30 29 28 26 24 23 21 19 18 18 18 18 19 20 21 22 23 24 26 27 29 30 32 34 37 40 43 45 48 49 52 55 57 60 63 66 68 70 70 72 73 71 69 69 70 70 70 69 66 64 61 60 59 58 59 54 54 55 53 54 54 54 58 55 52 50 48 47
32 33 35 38 39 40 41 43 44 44 43 42 41 39 38 36 34 33 31 30 29 28 27 25 24 22 20 19 19 19 20 21 21 21 22 22 23 24 26 28 30 31 32 33 35 37 40 42 44 47 50 53 54 57 60 63 66 69 71 72 71 71 70 69 69 69 71 70 67 65 63 63 61 62 62 54 52 55 54 57 55 55 59 55 52 52 51 49
33 34 36 38 39 40 42 43 44 44 43 42 41 39 38 36 34 32 31 30 29 28 27 25 24 22 21 20 21 21 22 22 22 21 21 22 24 26 28 30 32 33 35 36 36 36 38 40 42 44 48 50 52 54 58 61 63 66 69 70 71 72 72 71 70 68 69 69 67 68 68 68 66 64 62 56 54 56 57 59 56 57 59 54 52 54 54 52
33 35 37 38 39 41 42 44 45 45 43 42 41 39 37 35 33 31 30 29 29 28 27 25 24 23 22 22 21 21 21 21 21 21 22 24 26 28 30 32 33 34 36 37 39 39 39 40 41 43 45 47 50 53 55 57 60 63 66 69 71 73 74 73 71 70 69 68 68 69 71 70 67 63 61 60 58 59 60 59 56 59 61 56 54 54 55 55
34 35 37 38 40 41 42 44 45 45 43 42 41 39 37 34 32 31 30 29 29 27 26 25 24 23 23 22 21 21 20 20 20 22 24 26 28 30 31 32 33 33 34 35 37 39 40 41 42 43 44 45 48 50 52 55 57 60 64 67 70 72 73 72 71 71 70 69 68 68 69 69 66 62 62 63 61 62 62 59 57 60 62 58 55 55 55 55
34 36 38 39 40 41 42 44 45 44 43 42 40 38 36 33 32 30 30 30 29 27 25 24 24 23 23 22 21 20 20 19 20 23 25 28 29 31 32 32 32 31 31 31 32 35 39 42 44 45 45 45 45 48 50 53 55 58 61 64 66 69 71 71 73 73 71 71 69 68 69 68 65 62 63 64 64 65 63 59 58 60 61 59 56 57 55 53
35 36 38 39 40 41 42 44 45 44 43 42 40 38 35 33 32 31 30 30 28 26 24 24 23 23 23 22 21 20 20 20 21 23 26 28 29 30 30 28 27 27 28 28 28 30 34 39 44 45 46 44 45 47 48 51 54 56 58 60 62 66 68 70 74 75 72 71 71 70 71 69 65 63 65 65 66 68 64 61 61 60 60 59 56 57 56 52
35 37 38 39 40 41 42 44 45 44 43 42 40 38 35 33 32 31 31 30 28 26 24 24 23 23 23 22 23 22 21 21 21 24 27 28 29 27 25 23 22 23 26 27 25 26 29 33 38 42 46 44 44 46 47 49 51 52 55 58 60 64 68 68 71 75 73 70 72 73 72 71 66 63 64 65 66 69 66 62 62 61 61 60 57 58 56 52
36 37 38 40 40 41 42 43 44 44 43 41 40 37 35 33 32 32 31 30 28 26 24 23 23 23 23 23 23 22 22 21 22 25 27 28 26 21 18 17 19 22 24 26 25 22 24 28 31 35 41 44 43 44 45 47 48 51 54 56 58 62 65 65 67 73 74 71 72 73 74 72 68 64 65 64 63 67 67 64 63 63 63 62 59 59 57 53
36 37 39 40 40 41 42 43 43 44 43 42 40 37 35 34 33 32 32 31 28 26 24 23 22 23 23 23 23 22 21 20 22 25 25 26 21 14 14 16 18 21 23 25 24 23 22 24 27 29 34 40 43 43 43 46 49 52 55 57 58 60 63 63 64 71 74 72 72 74 74 73 70 67 67 64 62 66 66 64 63 64 64 63 61 61 57 54
36 37 39 40 40 41 42 43 43 43 42 42 40 37 35 33 33 33 32 31 29 26 24 22 21 21 21 22 22 22 20 19 22 23 24 24 17 12 15 18 19 20 21 23 23 22 22 23 25 27 30 36 42 44 43 46 50 51 54 56 55 57 61 63 64 68 71 70 71 73 73 73 71 69 68 67 66 67 63 60 62 65 66 64 63 62 59 56
36 37 39 40 41 41 42 43 42 42 42 41 40 38 35 34 34 34 34 32 29 26 24 21 20 20 20 21 21 22 21 20 22 22 23 21 15 14 18 19 22 22 22 22 22 21 20 22 23 25 28 31 37 42 44 45 47 49 52 54 54 55 57 61 63 65 67 69 69 71 74 73 73 72 71 70 70 70 66 61 62 65 66 65 64 63 61 58
36 37 38 40 40 41 42 43 42 42 42 41 40 38 35 34 34 35 35 33 30 27 24 21 19 20 21 21 21 22 21 22 22 22 22 19 15 16 19 21 23 24 24 22 21 21 19 20 22 23 26 28 31 37 43 44 45 47 50 52 54 54 55 58 61 61 62 66 67 69 73 74 74 75 74 74 74 72 69 63 62 65 66 66 66 65 62 59
36 37 38 40 40 41 42 43 43 42 42 42 41 39 36 34 34 35 35 34 31 28 24 21 20 20 20 21 22 22 22 22 22 22 22 17 15 17 21 23 23 24 25 23 22 21 19 20 21 21 24 26 27 31 37 43 45 45 46 49 53 53 54 55 56 58 59 63 66 67 71 74 76 77 76 76 75 71 67 64 62 64 65 65 66 65 63 60
36 36 37 39 40 41 42 42 43 43 42 42 41 40 38 35 34 35 35 34 31 27 25 23 21 20 20 20 22 23 23 22 22 23 21 17 16 18 21 22 23 24 24 22 21 20 19 21 22 21 23 25 27 27 31 39 44 45 44 46 49 52 55 54 55 59 60 61 63 64 68 72 74 77 77 75 74 71 68 66 63 61 62 64 65 65 65 62
35 36 37 39 39 40 41 42 43 43 43 42 42 41 39 37 35 34 35 34 31 28 27 23 20 20 18 19 21 22 23 23 22 23 22 18 17 19 21 22 22 23 24 22 21 21 20 22 24 23 23 25 26 27 28 32 40 45 46 45 46 49 55 56 55 57 57 57 58 59 63 69 71 74 75 75 75 73 69 68 65 62 61 63 64 65 65 62
35 35 37 38 39 40 41 42 43 43 42 42 42 42 41 38 36 34 34 33 31 30 27 23 21 20 19 19 20 21 22 22 22 23 22 19 18 20 22 22 21 23 24 23 21 21 20 22 24 23 23 24 25 27 27 29 34 40 44 46 46 46 51 55 54 55 55 53 52 55 60 65 67 70 73 74 75 74 71 69 67 64 62 62 63 65 65 62
34 35 37 38 39 40 41 42 43 43 43 43 43 43 42 40 37 35 34 34 33 30 27 24 22 20 20 21 20 20 20 21 23 23 21 19 18 18 20 22 22 22 24 23 22 22 22 22 23 23 23 24 23 24 27 27 29 33 41 47 47 44 46 50 52 54 55 52 51 56 60 62 65 67 71 73 74 74 73 71 68 65 63 63 62 63 64 63
34 35 37 38 38 39 40 42 43 43 43 43 43 43 43 42 39 36 34 34 33 31 29 26 22 20 21 22 22 21 20 21 22 23 21 19 18 17 17 19 20 21 23 23 22 24 25 23 22 22 23 23 22 23 26 27 26 30 38 44 46 46 45 47 49 51 53 53 54 57 57 59 65 67 69 72 72 74 74 71 69 66 64 63 63 63 63 63
34 35 37 37 38 39 40 41 42 43 43 43 42 43 44 43 41 37 34 34 33 31 30 28 23 20 19 21 24 23 22 21 22 22 21 17 17 18 18 19 20 19 21 22 22 25 26 23 22 22 22 22 22 21 25 27 28 31 35 37 40 45 46 45 47 48 51 54 56 57 55 57 63 64 65 69 71 71 71 71 70 68 66 64 64 64 64 63
35 36 37 37 38 38 39 40 41 42 43 42 42 43 44 44 42 39 36 35 33 32 31 29 25 20 18 20 23 23 23 21 21 22 20 17 18 20 21 21 21 19 19 20 21 22 24 23 22 22 22 23 22 21 24 27 30 32 31 31 34 40 43 44 45 45 48 54 57 56 53 55 60 61 60 66 69 67 67 69 69 69 68 66 65 66 65 63
36 37 38 38 38 38 39 40 41 42 42 42 42 43 44 44 43 41 38 35 34 33 32 30 26 21 18 19 20 22 22 20 19 20 19 18 19 23 27 25 21 19 17 19 21 20 21 22 22 22 22 23 23 21 22 24 29 32 29 29 31 35 38 41 44 45 48 54 56 54 53 54 59 60 58 63 66 65 64 66 67 68 68 67 67 67 65 63
37 38 38 38 38 38 39 40 41 41 42 42 42 42 44 44 45 43 39 36 34 33 32 30 27 22 19 18 19 21 22 19 18 19 20 20 20 25 30 25 20 18 16 17 21 19 18 21 22 22 22 21 22 20 18 19 24 29 29 29 30 33 34 35 39 43 48 53 53 50 51 55 59 60 58 61 65 64 63 65 66 66 67 68 69 68 66 65
38 39 39 38 38 38 39 40 41 41 42 42 41 42 43 44 45 44 40 36 35 34 32 30 27 23 19 18 19 22 22 21 18 19 21 22 22 26 27 21 18 18 15 16 19 17 17 20 22 23 23 21 20 18 16 17 20 25 28 28 30 32 30 29 34 38 43 49 50 48 51 55 58 59 59 61 62 60 59 62 64 64 65 68 70 70 69 67
38 40 40 39 39 38 38 39 40 41 42 42 41 41 42 43 44 44 41 37 35 35 33 30 26 23 19 18 20 22 23 22 20 20 21 22 24 25 22 19 19 17 16 17 19 18 18 20 22 24 25 23 20 17 15 18 20 23 26 28 31 33 30 27 29 30 31 36 40 42 49 54 56 56 58 60 58 54 54 57 60 61 62 65 67 69 69 67
38 40 40 40 40 39 38 39 40 41 42 42 41 41 42 42 43 44 42 38 35 34 33 31 26 21 18 18 20 22 23 23 22 21 21 22 23 22 20 20 19 16 17 19 21 21 21 22 24 25 27 26 21 16 16 18 20 22 25 29 30 30 30 29 27 25 25 26 25 27 38 51 56 57 59 61 57 52 51 53 57 59 60 61 64 66 67 67
38 40 41 41 41 39 38 39 39 40 41 41 42 42 41 41 42 44 42 38 35 33 32 31 28 22 18 18 20 22 23 23 23 21 21 21 20 20 21 22 20 16 18 20 22 23 22 24 27 26 27 27 22 18 18 18 19 22 24 28 28 28 31 31 30 30 33 32 27 26 36 48 56 59 58 58 56 53 51 50 52 55 57 59 62 64 66 68
39 40 41 42 42 40 39 38 39 40 40 41 41 42 41 41 42 43 42 39 35 34 33 31 29 25 20 19 20 23 24 24 23 22 22 21 18 18 22 24 21 18 19 19 21 23 22 23 27 26 25 26 25 22 19 17 19 21 23 25 27 31 33 32 31 31 34 35 33 34 36 39 49 56 56 57 57 53 50 49 48 49 52 56 59 61 64 67
39 41 42 43 43 42 40 39 39 40 40 40 40 40 41 41 42 43 43 39 36 34 33 32 30 26 23 20 20 22 24 23 22 21 21 21 18 17 22 25 22 19 20 20 21 23 24 25 27 25 23 25 27 24 18 16 16 18 24 26 26 30 32 32 31 31 31 33 34 36 36 38 46 51 52 55 57 54 51 49 48 47 47 50 55 59 61 64
38 41 42 43 43 42 41 39 39 40 41 40 39 39 41 42 42 44 43 40 37 35 33 32 30 27 24 22 21 22 24 24 21 20 21 22 20 18 20 24 22 19 19 21 23 25 26 26 28 26 21 22 26 24 16 14 15 15 21 25 27 29 30 30 31 30 31 30 27 27 31 38 45 49 52 56 57 56 53 50 49 47 46 47 51 55 59 61
38 41 42 43 43 43 41 39 39 40 40 40 38 37 40 41 42 43 44 41 38 35 33 32 30 28 24 23 22 21 23 24 22 20 21 23 21 19 20 22 21 18 18 20 24 27 27 26 27 26 21 20 23 21 17 16 17 17 18 20 24 28 28 29 29 27 28 27 24 24 26 28 31 39 50 56 55 55 53 51 51 49 48 47 47 51 55 59
39 40 42 43 43 43 41 39 38 39 39 39 38 37 38 40 41 43 44 42 39 36 34 32 30 28 25 23 23 21 21 23 23 22 22 23 22 20 21 21 19 17 16 20 24 26 27 27 28 26 21 19 20 18 17 17 17 18 18 17 18 22 26 29 30 27 25 25 25 25 27 24 21 28 43 52 53 54 54 54 53 52 50 48 47 49 52 57
38 40 42 43 43 42 40 39 38 38 38 39 39 37 37 39 41 42 43 42 39 37 34 32 31 29 25 23 23 22 22 22 23 23 22 21 21 21 22 20 17 16 15 19 23 25 25 25 28 27 19 17 19 17 15 16 14 15 16 16 15 18 23 26 27 25 24 24 23 24 27 26 22 27 40 49 52 53 55 55 55 54 53 51 49 49 50 53
37 39 42 43 43 42 40 38 38 37 37 39 39 38 36 37 39 41 42 41 39 37 35 32 31 30 26 23 23 24 24 22 23 23 21 20 20 21 22 19 17 15 14 17 21 23 25 25 28 28 18 14 16 16 16 15 12 11 11 11 12 14 18 21 22 21 23 23 21 22 24 20 18 24 32 40 48 52 53 54 55 55 54 53 52 51 50 50
37 39 41 42 43 42 40 38 37 37 37 37 39 39 37 36 38 39 41 41 39 38 36 33 31 30 27 23 22 24 26 25 24 22 20 20 20 21 22 20 18 16 15 17 20 23 26 27 29 30 21 13 14 15 16 16 13 11 9 5 6 10 14 17 20 21 22 20 18 23 22 16 18 23 26 30 40 47 49 49 52 54 54 54 54 52 51 50
37 38 40 42 43 43 41 39 38 37 36 36 37 38 37 36 37 38 39 40 39 38 36 33 31 30 28 23 22 24 26 26 24 20 19 20 19 19 22 21 19 19 17 18 20 23 26 25 27 28 23 14 11 11 13 14 12 10 9 6 0 7 11 13 17 20 20 19 20 23 22 18 21 25 27 29 32 38 42 43 47 51 52 53 54 53 51 50
36 38 40 41 42 43 42 40 38 38 37 36 35 36 37 36 36 37 38 39 38 38 36 33 31 30 29 25 22 23 24 25 23 19 19 21 18 17 21 21 20 20 19 19 20 21 22 22 22 24 21 15 11 9 9 10 9 8 7 7 4 5 9 11 14 15 15 16 17 17 17 16 18 23 29 31 30 34 37 37 41 47 48 49 52 52 51 51
36 37 39 41 42 44 43 41 39 39 38 37 36 36 36 36 36 36 37 38 38 37 37 34 31 30 29 26 22 21 22 22 22 20 20 21 19 18 20 20 20 21 20 20 19 19 20 20 21 22 20 17 14 12 11 10 8 7 5 4 5 3 3 6 7 7 9 10 7 7 10 10 12 20 27 30 30 33 36 35 37 42 43 43 46 49 50 50
36 37 39 40 42 43 43 42 40 39 39 38 36 35 35 35 36 36 36 37 37 37 36 35 32 29 29 28 24 20 19 20 19 19 20 20 18 17 18 18 20 21 21 20 19 18 20 22 22 22 20 19 18 15 13 12 9 7 6 4 2 4 5 2 1 2 6 5 1 3 7 6 11 20 25 28 28 28 32 34 34 36 38 38 40 44 47 49
36 37 38 39 41 42 44 43 41 39 39 39 38 36 34 34 36 37 36 36 36 36 35 34 32 29 29 29 25 21 19 20 19 18 19 19 17 16 16 17 17 19 19 19 19 18 20 23 23 22 20 21 22 17 11 10 8 6 6 6 4 2 5 6 5 4 3 3 2 2 3 1 8 16 19 24 26 24 27 32 32 31 34 34 36 39 44 50
36 36 38 39 40 41 43 43 41 39 39 40 39 38 35 34 35 36 37 35 35 36 34 32 31 28 28 28 26 21 20 20 20 19 18 17 16 15 15 15 15 17 18 18 19 20 21 23 24 23 20 20 21 18 11 7 6 5 5 6 5 3 2 6 7 7 5 3 2 3 5 5 7 12 15 18 23 23 23 27 30 31 33 35 36 37 42 49
36 35 37 38 38 40 42 43 42 39 39 40 40 39 38 35 34 35 36 35 34 34 34 31 29 26 25 26 25 21 19 19 20 19 18 16 15 14 14 14 15 17 18 19 21 22 23 24 24 23 22 20 21 20 15 9 5 4 4 5 5 4 2 2 4 6 4 1 2 3 5 3 5 10 12 14 20 21 20 24 30 33 33 34 37 39 42 47
34 34 36 37 37 40 42 43 42 40 39 39 40 40 39 38 36 35 35 34 32 33 33 31 28 25 23 24 24 20 18 18 19 19 17 15 14 13 14 15 16 16 18 20 21 22 24 25 24 23 22 21 20 20 19 14 8 5 4 3 4 1 2 2 2 2 1 3 1 2 4 6 6 9 12 14 18 20 20 23 30 35 36 37 39 40 41 44
Wind_Direction
10 9 7 5 3 359 356 352 348 345 340 336 332 328 323 318 313 307 301 295 291 288 285 282 280 278 275 274 272 270 268 266 264 262 260 258 256 254 251 248 246 244 243 242 242 241 240 239 238 238 239 240 241 241 242 243 244 244 244 244 243 242 240 239 240 239 236 236 236 232 226 221 222 224 221 223 223 222 223 221 218 218 225 229 228 229 227 228
9 8 6 4 2 358 355 352 349 345 341 338 334 330 326 322 318 313 308 303 298 293 289 285 283 281 279 276 274 272 271 269 267 266 263 260 259 257 255 252 249 246 244 243 242 241 241 240 238 238 237 239 240 241 241 241 243 244 245 245 243 241 241 239 240 242 237 236 237 233 229 223 220 224 223 222 222 223 223 220 216 215 220 227 230 231 230 226
7 6 4 2 0 358 355 352 349 346 342 339 336 332 328 324 321 316 312 308 304 299 295 290 287 285 283 281 279 276 273 271 270 269 266 263 261 259 257 255 252 249 247 244 242 241 241 241 239 238 237 237 238 239 240 240 241 242 244 245 243 241 243 241 239 242 240 235 236 233 232 230 223 223 224 221 220 224 224 222 217 213 215 221 227 230 231 231
6 4 3 1 359 357 354 351 349 346 343 340 338 334 330 327 323 319 315 311 307 303 300 296 293 290 287 285 282 280 276 274 272 270 267 265 262 259 257 255 254 251 249 247 244 242 241 240 240 239 238 237 237 237 238 239 240 240 242 243 242 243 244 243 241 243 243 236 235 235 231 232 229 224 225 222 218 223 225 225 222 215 213 216 222 227 230 234
4 2 1 360 357 355 353 350 348 346 344 342 339 336 332 329 326 322 318 314 311 308 305 302 300 297 293 290 286 282 278 274 273 271 269 266 264 261 259 256 254 252 250 248 246 244 242 240 239 239 238 238 237 237 237 238 239 239 240 241 241 243 244 245 244 244 242 235 232 237 232 230 233 229 227 225 220 222 222 224 226 222 216 215 218 222 225 229
1 0 359 357 356 353 351 350 348 346 345 343 340 337 334 331 327 324 320 317 314 311 309 307 305 303 301 297 292 287 281 277 274 272 270 268 266 263 261 258 256 253 251 249 247 245 243 242 240 239 238 238 238 238 237 237 238 238 239 240 239 241 243 243 242 241 241 236 232 236 234 231 236 234 229 228 223 223 222 222 227 226 220 215 216 219 222 225
359 358 357 356 354 352 350 349 348 347 345 343 340 338 336 333 329 326 323 319 316 313 311 310 309 308 306 302 297 291 286 281 277 274 271 269 268 267 265 262 259 256 252 250 247 246 244 243 241 240 238 237 238 237 237 236 237 238 238 239 239 239 240 240 240 241 240 238 235 234 235 235 236 234 231 228 225 225 225 224 226 226 223 220 217 218 223 226
358 357 355 354 352 351 350 349 349 348 345 343 341 340 337 334 331 328 324 321 318 316 314 312 312 311 309 306 301 295 290 285 282 279 276 275 274 273 272 269 265 261 257 254 250 247 245 243 242 241 239 238 237 237 237 237 237 238 238 238 239 238 238 239 240 241 241 239 237 235 234 234 234 235 234 229 226 226 225 227 227 226 225 224 223 220 222 226
356 355 354 353 351 350 350 349 349 348 346 344 342 341 339 336 333 330 326 322 319 318 317 316 316 314 311 307 303 298 295 292 290 288 287 286 285 283 281 278 274 268 264 260 256 251 247 244 242 241 240 239 238 236 237 237 237 237 236 236 237 238 238 239 240 240 241 240 238 236 233 232 233 235 237 230 226 226 225 228 228 227 225 224 226 224 222 224
355 354 353 352 351 350 350 349 349 348 346 345 344 342 340 338 335 332 328 324 322 321 320 319 318 315 311 307 303 299 299 298 297 296 295 294 292 290 287 284 281 277 271 265 261 258 253 248 244 242 241 240 238 237 236 236 236 236 236 236 237 238 238 238 239 240 241 240 238 237 234 233 233 235 236 229 227 228 228 230 228 228 228 224 225 226 224 225
354 354 353 351 351 350 350 349 349 348 347 346 345 344 342 340 338 334 330 327 325 323 322 320 318 317 312 307 302 300 302 301 300 299 297 295 293 291 290 287 284 281 277 271 265 260 258 254 249 244 241 240 238 238 236 235 235 236 236 237 238 238 238 238 239 239 240 240 238 238 237 236 235 234 232 228 229 230 229 231 230 231 231 225 225 227 226 227
354 353 352 351 350 349 349 349 349 349 348 347 346 346 344 342 339 336 332 329 327 324 322 320 320 319 315 309 305 303 304 304 303 300 298 296 294 292 290 288 286 283 279 275 269 263 258 255 252 248 244 241 238 237 237 235 234 235 235 236 237 238 238 237 237 238 239 239 238 237 236 236 234 230 227 225 230 231 230 230 229 232 233 228 225 227 229 228
354 353 352 351 350 349 349 349 349 349 349 348 347 347 345 343 341 338 334 331 328 326 323 322 321 319 316 312 309 309 308 308 306 303 303 302 301 300 297 294 290 285 280 275 271 266 260 255 251 249 247 243 240 237 236 235 234 234 234 234 235 236 237 237 237 237 237 238 237 236 236 235 233 228 225 225 228 232 231 230 230 232 234 231 226 227 231 230
353 353 352 351 350 350 350 350 350 350 350 350 349 348 347 345 343 339 336 332 330 327 324 323 320 318 317 316 315 315 314 313 310 308 309 311 312 312 310 307 302 296 289 280 271 264 259 254 250 247 246 243 241 239 237 235 233 233 233 233 233 235 236 236 237 237 237 237 236 237 237 235 232 229 227 227 229 231 231 230 232 233 233 233 230 229 232 232
353 353 352 351 350 350 350 350 351 351 351 351 350 349 348 347 344 341 337 334 331 328 325 321 319 318 318 317 317 318 317 315 313 313 316 319 321 320 317 316 314 311 305 293 279 266 257 251 247 244 243 242 241 239 237 235 233 232 232 232 233 234 235 235 236 235 235 236 236 237 236 234 232 230 230 231 231 231 230 229 231 234 234 233 232 231 234 234
352 353 352 351 351 350 351 351 351 352 352 352 352 351 350 349 346 343 339 336 333 329 325 321 319 318 316 316 317 317 316 314 314 317 320 324 325 321 320 321 321 323 323 311 292 273 260 251 245 241 241 240 239 238 237 235 233 232 231 230 231 233 232 233 235 234 233 235 236 236 235 234 232 231 232 232 233 231 229 229 230 233 235 234 232 231 234 234
352 353 352 352 351 351 352 352 352 353 354 354 353 352 351 350 347 345 342 339 335 330 325 322 319 317 315 315 315 315 314 315 317 320 322 325 325 323 324 327 328 331 333 329 311 285 267 258 250 243 239 237 237 236 236 235 233 232 232 229 229 231 231 231 234 234 232 232 235 236 235 234 233 233 233 231 232 232 228 227 230 231 234 234 232 232 234 234
352 353 352 352 351 352 353 353 353 354 354 354 354 353 351 350 349 347 344 340 336 331 326 322 318 315 314 314 314 315 315 316 318 320 323 326 325 326 333 338 337 333 330 332 329 307 281 268 262 254 243 238 237 236 235 234 232 231 231 229 228 230 231 230 233 235 231 230 232 235 235 234 234 233 234 230 231 234 228 225 229 230 232 233 232 232 234 233
352 352 352 352 352 353 354 354 355 355 355 355 355 354 352 350 349 347 345 342 337 332 328 323 318 314 314 314 313 314 315 315 318 321 324 326 325 327 338 340 336 332 326 327 331 323 303 282 272 267 255 243 237 235 234 233 231 230 230 228 227 228 230 229 231 234 232 229 229 233 234 235 234 233 234 231 229 232 227 222 226 230 230 231 231 232 232 231
351 352 352 352 352 353 354 355 356 356 356 356 356 355 352 350 349 348 347 344 339 334 329 324 318 314 312 311 311 314 315 315 320 324 326 325 321 321 331 332 328 327 325 324 325 323 314 298 282 273 266 254 243 236 234 233 232 231 231 230 228 227 229 229 229 232 233 230 228 230 232 234 235 233 233 233 230 232 229 222 224 228 229 228 230 232 232 231
351 351 351 352 352 354 355 355 356 357 357 357 356 355 353 351 350 349 348 346 342 336 330 324 318 313 311 309 308 313 316 318 324 328 327 322 312 313 324 324 320 321 322 323 323 320 313 304 293 281 272 264 253 243 238 236 234 233 231 231 229 228 229 229 229 231 233 232 229 229 230 232 234 232 231 232 231 231 229 223 221 226 228 227 229 230 231 232
351 351 352 352 353 354 355 356 357 357 358 358 357 356 353 351 350 349 348 347 343 338 331 325 318 313 312 309 307 310 315 321 327 330 327 317 300 305 316 314 313 315 316 321 323 321 315 305 296 287 279 271 262 250 243 241 238 235 233 231 230 228 228 229 229 229 232 233 230 228 230 230 232 232 231 231 230 229 227 223 220 222 225 226 228 228 228 231
351 352 352 352 353 354 356 356 357 357 358 358 358 357 354 352 350 349 348 347 344 340 334 327 321 315 313 310 308 309 315 322 327 330 328 314 293 297 304 305 309 310 311 318 321 321 316 306 297 288 282 275 267 257 247 242 241 238 236 234 231 230 229 229 230 229 229 231 230 228 229 229 230 231 230 231 231 230 229 227 222 221 223 224 226 227 226 229
352 352 352 352 353 354 356 356 357 357 358 359 358 357 356 353 351 349 348 347 345 341 336 330 323 318 315 313 312 311 315 321 325 329 327 311 293 293 296 301 307 309 310 313 318 320 310 301 298 292 284 276 269 262 251 243 241 240 238 236 233 232 230 228 229 229 226 229 231 229 230 230 230 231 231 231 232 231 230 229 224 222 223 224 225 227 226 226
352 353 353 353 353 355 356 357 357 357 358 358 358 358 357 354 352 350 349 348 346 342 338 333 326 322 320 316 313 312 315 319 322 328 326 311 295 292 295 301 306 311 313 312 315 318 308 297 299 300 294 283 272 264 256 246 241 240 240 237 234 233 233 229 228 229 226 227 230 230 231 231 230 230 230 231 232 231 229 228 225 221 222 223 224 226 226 225
353 353 353 353 354 355 356 357 358 357 357 358 358 358 357 356 353 350 349 349 347 344 340 335 330 326 325 322 314 311 313 317 321 326 326 315 302 296 296 302 307 310 312 312 314 316 307 298 299 302 300 295 282 268 259 251 244 241 241 239 235 234 235 233 231 231 228 226 229 232 231 230 229 230 230 230 231 231 229 228 226 222 220 222 223 225 227 226
354 354 354 354 354 355 356 357 358 357 357 357 358 358 358 357 355 351 351 350 348 345 341 337 333 329 329 329 323 316 314 318 320 324 327 321 311 305 302 306 309 309 310 310 314 317 309 300 301 302 301 302 296 279 264 254 246 242 240 237 235 236 237 236 233 232 230 226 229 231 229 229 229 228 229 229 229 230 229 227 226 223 220 220 221 223 226 226
355 355 354 354 354 355 357 357 357 357 357 357 357 357 357 357 356 353 352 351 348 347 344 339 335 331 331 333 332 327 322 321 319 322 328 324 318 317 316 316 312 307 308 310 313 317 313 306 305 306 304 304 302 288 268 254 245 243 240 236 235 237 237 237 235 234 232 230 230 231 229 230 229 227 228 229 228 228 228 227 226 224 221 220 221 222 224 225
356 355 354 355 355 356 357 357 357 357 357 356 356 356 356 356 357 355 354 352 350 348 346 342 337 333 332 335 338 335 330 325 320 324 329 323 319 322 325 324 319 310 307 309 314 317 315 311 307 307 310 307 303 295 278 258 243 243 243 236 235 236 236 238 237 235 234 233 231 229 229 231 230 227 229 229 228 227 227 226 226 224 223 221 221 222 222 223
356 356 355 355 355 355 356 357 357 357 357 356 356 356 356 356 356 357 356 354 352 351 347 343 340 334 333 338 340 337 332 327 324 327 330 326 319 321 326 326 321 318 312 310 317 318 312 311 309 309 311 308 303 298 287 267 246 243 245 239 235 236 235 237 238 236 236 235 231 228 229 232 231 228 229 229 228 227 227 227 226 224 223 221 221 222 221 222
357 356 356 355 355 355 356 356 357 357 357 356 356 355 355 355 356 358 357 354 353 353 349 345 341 334 329 337 343 339 332 328 327 327 329 328 320 320 327 326 321 324 320 316 324 323 312 311 314 315 313 309 305 301 295 276 251 242 243 241 239 238 237 238 238 237 237 236 231 228 229 232 234 230 228 228 227 226 226 226 226 224 222 221 221 222 221 221
358 357 356 355 355 355 355 356 356 357 357 357 356 355 354 355 357 358 357 355 354 354 352 347 343 337 328 332 343 343 337 332 328 327 329 328 321 320 324 324 322 326 322 320 326 324 314 312 315 318 318 312 306 301 296 284 259 245 241 239 238 238 239 241 240 238 239 237 231 230 231 232 234 231 227 227 226 224 225 226 225 223 221 221 221 221 220 220
358 357 357 356 355 355 354 355 356 356 357 357 356 355 354 355 357 358 356 355 355 354 354 350 345 341 332 331 341 346 341 336 331 328 328 327 324 325 326 327 328 324 319 325 328 324 317 315 315 318 322 318 308 299 289 283 269 250 241 238 236 236 236 240 241 241 242 239 233 232 234 233 234 233 230 227 225 224 224 226 226 223 222 221 220 220 219 219
359 358 357 357 356 355 354 354 355 356 357 357 356 355 355 356 357 357 356 357 356 355 355 353 348 344 337 333 340 346 343 339 338 334 330 329 329 331 332 334 334 323 316 324 328 328 329 322 313 313 319 319 311 300 283 273 267 255 245 239 235 233 233 238 243 243 245 243 238 236 238 237 234 234 233 228 225 224 224 225 227 224 223 222 221 221 220 219
357 358 357 357 356 355 354 354 354 355 356 356 356 356 356 357 356 356 357 358 358 357 356 354 350 348 342 336 340 347 344 341 343 341 336 336 336 339 341 339 335 323 314 321 324 326 334 330 317 312 314 317 316 306 285 272 267 262 251 241 235 233 234 238 241 239 237 239 237 234 238 239 233 231 232 229 225 223 223 224 227 225 223 222 221 221 221 220
356 357 357 357 356 355 354 354 354 355 355 356 357 357 357 356 355 356 358 359 359 359 358 356 352 350 346 341 344 349 346 343 346 345 343 343 342 344 348 344 337 326 320 324 322 321 330 333 324 318 314 317 321 313 295 277 263 259 254 246 238 235 233 235 239 239 237 236 234 230 235 239 235 230 230 231 227 224 222 224 226 226 224 223 221 220 220 220
356 356 356 356 356 355 354 354 354 354 354 356 357 357 356 355 355 356 358 359 360 360 359 358 354 349 347 348 351 351 348 347 347 345 345 347 344 343 348 348 340 330 327 327 324 323 328 330 328 323 317 319 324 321 309 287 263 253 253 249 240 235 232 231 236 238 238 239 239 236 237 240 237 231 230 232 230 226 222 223 225 226 225 223 222 220 220 219
355 355 356 356 356 355 354 354 354 353 354 356 358 357 355 354 354 356 358 360 0 0 0 359 356 351 347 351 357 353 349 349 349 345 346 348 345 339 346 350 343 334 332 330 328 329 329 331 332 328 322 321 324 328 321 299 275 254 248 245 239 236 233 231 234 237 237 242 246 245 244 243 238 232 229 231 231 227 223 223 224 224 225 224 222 221 220 219
353 355 356 356 355 354 353 354 353 352 354 356 357 356 355 354 354 355 358 360 0 1 1 0 357 352 348 351 0 357 349 350 352 349 348 349 347 339 340 346 344 338 335 332 330 328 328 333 336 335 332 326 324 328 325 303 289 267 249 244 239 237 234 231 233 236 238 242 247 249 248 246 242 236 231 230 230 227 223 222 223 223 223 224 222 221 220 219
352 354 355 355 355 354 353 353 352 353 354 354 355 356 355 354 354 354 357 359 360 1 2 2 359 355 350 351 359 359 351 350 353 353 351 350 349 341 338 343 344 340 336 334 331 328 327 333 338 339 337 334 331 330 323 305 290 278 264 250 241 235 232 232 232 233 235 239 243 246 248 247 245 241 235 231 231 229 224 222 223 223 222 222 222 221 220 218
351 353 354 354 354 353 352 352 352 353 353 352 353 356 356 355 354 354 356 358 359 360 1 2 1 357 353 352 355 358 355 352 353 354 352 350 348 343 343 346 346 341 337 335 334 331 329 331 337 341 339 340 343 334 322 313 295 283 274 259 244 234 229 231 233 232 235 239 241 244 247 243 240 242 238 232 231 231 227 223 222 222 222 220 220 221 219 218
350 351 353 353 353 353 351 351 352 353 352 351 352 355 357 356 354 354 355 357 358 359 360 2 2 1 357 353 353 356 357 355 352 352 352 349 345 344 349 351 349 344 339 336 337 339 339 335 339 344 345 348 350 342 334 326 308 294 283 264 247 234 229 229 230 233 239 242 242 245 249 246 238 240 239 233 231 230 228 225 223 223 223 221 221 221 220 219
350 351 352 352 352 352 351 350 351 352 352 352 351 353 357 358 356 354 354 356 357 357 359 0 2 2 360 356 353 354 358 358 353 351 350 348 346 348 353 353 350 346 341 339 341 345 349 348 344 346 352 358 357 357 357 347 330 323 309 274 247 233 228 225 224 229 236 237 239 247 252 248 239 238 236 232 230 229 228 227 225 224 224 223 222 222 221 220
351 352 351 351 351 351 351 350 349 351 352 353 351 352 355 358 357 354 354 356 357 356 358 359 0 2 1 359 357 355 355 358 356 352 350 350 348 349 351 352 351 348 342 342 343 342 344 346 344 346 352 3 3 2 5 3 358 357 352 317 250 226 219 218 220 228 234 236 243 251 251 239 225 224 222 220 224 225 226 227 226 225 224 224 224 223 221 221
350 351 351 350 350 350 350 350 349 350 352 354 352 351 353 357 358 356 354 355 357 356 357 358 358 1 2 1 1 358 355 356 358 356 355 355 351 344 345 350 354 351 343 342 344 340 340 342 344 348 351 357 5 6 360 360 6 9 13 27 134 211 213 217 225 234 240 244 247 250 250 236 218 213 211 210 213 217 221 223 223 224 224 225 225 224 221 221
347 350 350 350 350 350 350 350 349 349 351 353 353 352 352 355 358 357 355 355 357 356 356 358 358 359 2 2 3 1 356 356 1 2 359 357 352 341 339 346 353 354 348 345 348 348 347 349 355 1 1 355 355 6 0 351 356 0 11 41 76 187 211 223 233 240 247 252 251 252 253 239 220 216 214 208 205 209 213 216 220 222 223 225 226 225 223 222
344 348 349 350 350 350 349 349 348 348 350 352 353 353 353 354 356 358 356 355 357 356 356 357 358 357 0 2 3 2 360 359 2 5 1 356 351 343 339 341 346 349 350 351 353 354 352 351 357 8 13 7 357 356 356 349 340 329 328 11 50 84 190 221 237 241 247 255 255 257 260 239 220 223 216 204 201 205 206 210 215 219 221 223 225 226 225 223
342 347 348 350 350 349 349 348 347 348 349 350 352 354 354 354 355 358 357 356 357 357 356 356 357 356 358 1 2 2 4 5 5 5 1 354 349 344 340 338 339 344 350 353 351 348 346 347 352 359 6 9 6 358 347 340 334 323 314 307 341 42 63 59 339 258 259 278 336 274 272 247 219 222 214 202 198 200 203 208 212 214 215 218 223 226 225 222
342 345 347 349 349 349 348 347 346 347 348 349 351 352 355 356 355 357 358 357 356 358 357 356 355 355 356 359 0 359 1 7 8 6 1 354 350 348 346 343 342 346 351 352 349 348 349 353 357 1 3 3 2 1 351 338 330 318 314 303 291 18 76 72 48 26 347 358 24 309 311 204 202 209 207 204 202 200 205 208 208 208 209 211 218 223 223 221
341 343 345 347 348 348 347 346 346 347 348 348 348 350 354 356 356 355 358 358 356 357 358 356 354 353 353 355 358 357 358 3 7 7 2 356 353 354 353 352 353 356 358 358 360 3 3 4 5 7 11 8 2 4 5 355 347 331 314 305 302 308 93 98 80 65 63 62 22 28 65 97 168 188 197 205 203 201 206 207 207 209 210 212 217 222 221 220
340 341 343 345 346 346 346 346 345 346 348 347 347 349 351 354 357 356 357 358 356 356 358 358 354 352 352 352 354 356 357 0 6 6 1 357 358 357 356 359 2 6 10 11 13 13 10 8 8 9 15 17 9 5 6 7 10 1 328 301 295 307 337 87 94 85 82 32 340 57 100 132 177 188 197 201 199 203 207 204 203 206 208 211 217 221 220 218
338 339 341 343 344 344 345 346 344 344 347 347 347 349 350 351 355 357 356 357 357 355 356 358 357 353 351 350 351 354 356 358 4 4 358 357 1 360 358 2 8 15 20 17 13 11 8 6 5 4 6 8 4 1 4 7 4 359 345 286 251 277 15 10 4 22 330 269 269 134 174 206 206 203 207 202 201 207 207 203 204 205 204 208 214 217 215 215